Regional Weather Roundup
Issued by NWS

Home | Current Version | Previous Version | Text Only | Print | Product List | Glossary On
Versions: 1 2 3 4 5 6 7 8 9 10 11 12 13 14 15 16 17 18 19 20 21 22 23 24 25 26 27 28 29 30 31 32 33 34 35 36 37 38 39 40 41 42 43 44 45 46 47 48 49 50
000
ASUS44 KFWD 252010
RWRTX
NORTH TEXAS HOURLY WEATHER ROUNDUP
NATIONAL WEATHER SERVICE FORT WORTH TX
300 PM CDT FRI JUL 25 2014

NOTE: "FAIR" INDICATES FEW OR NO CLOUDS BELOW 12,000 FEET WITH NO
SIGNIFICANT WEATHER AND/OR OBSTRUCTIONS TO VISIBILITY.

TXZ118-119-252100-
DALLAS/FORT WORTH METROPLEX

CITY           SKY/WX    TMP DP  RH WIND       PRES   REMARKS
DFW AIRPORT    MOSUNNY   98  65  33 VRB3      29.95F HX 101
DALLAS LOVE    MOSUNNY   99  66  33 S10       29.94F HX 103
FTW MEACHAM    SUNNY     99  63  30 VRB5      29.95F HX 101
DAL-EXECUTIVE  MOSUNNY   99  66  33 S9        29.95F HX 103
FTW-ALLIANCE   MOSUNNY   97  67  37 S8        29.94F HX 101
FTW-NAS-JRB    MOSUNNY  101  62  27 S13       29.99F HX 102
FTW-SPINKS     MOSUNNY   99  64  32 SW9       29.97F HX 101
ARLINGTON      SUNNY     96  63  33 S9        29.96F HX  97
GRAND PRAIRIE  SUNNY     97  61  30 S9        29.97F HX  97
ADDISON        SUNNY     97  63  32 SW9       29.96F HX  98
MESQUITE       SUNNY     95  66  38 S5        29.96F HX  98
LANCASTER      SUNNY     98  65  34 SW10      29.96F HX 101
$$

TXZ091>094-102>105-117-120-121-131>134-252100-
NORTH CENTRAL TEXAS

CITY           SKY/WX    TMP DP  RH WIND       PRES   REMARKS
SHRMAN/DENISON SUNNY     96  65  35 S7G16     29.97F HX  98
GAINESVILLE    SUNNY     94  69  43 SE12      29.98F HX  99
BOWIE          SUNNY     94  69  43 S6        29.97F HX  99
BRIDGEPORT     SUNNY     96  60  29 SW9       29.97F HX  95
DECATUR        SUNNY     95  62  32 S9        29.97F HX  96
DENTON         SUNNY     95  68  41 S10       29.95F HX  99
MCKINNEY       SUNNY     95  70  44 S5        29.96F HX 101
GREENVILLE     SUNNY     95  68  41 SE8       29.97F HX  99
ROCKWALL       SUNNY     94  71  46 W7        29.95F HX 101
TERRELL        SUNNY     95  67  39 S3        29.97F HX  99
WAXAHACHIE     MOSUNNY   96  62  32 S8        29.97F HX  96
CLEBURNE       SUNNY     95  68  41 S9        29.99F HX  99
GRANBURY       SUNNY     99  61  28 S10       29.97F HX  99
$$

TXZ083>090-098>101-113>116-127>130-139>142-154-155-252100-
WESTERN NORTH TEXAS

CITY           SKY/WX    TMP DP  RH WIND       PRES   REMARKS
WICHITA FALLS  MOSUNNY   98  67  36 S15G21    29.92F HX 102
WF-KICKAPOO    SUNNY     99  57  25 S14G20    29.94F HX  98
VERNON         SUNNY    101  56  22 S15       29.93F HX 100
ABILENE        SUNNY     95  63  34 S9        30.01F HX  96
ABILENE-DYESS  MOSUNNY   95  63  33 SE13      29.99F HX  96
BRECKENRIDGE   SUNNY     98  58  26 SW7       29.96F HX  98
GRAHAM         SUNNY    100  57  24 S6        29.94F HX  99
MINERAL WELLS  SUNNY     99  61  28 S14G21    29.94F HX  99
STEPHENVILLE   SUNNY     94  61  32 S8        30.02F HX  95
COMANCHE       SUNNY     95  62  34 SE5       30.00F HX  95
BROWNWOOD      SUNNY     93  63  36 SE8       30.00F HX  94
COLEMAN        SUNNY     94  59  31 SE6G17    30.01F HX  93
BRADY          SUNNY     93  64  38 VRB7      30.01F HX  95
$$

TXZ143>147-156>162-174-175-252100-
CENTRAL TEXAS

CITY           SKY/WX    TMP DP  RH WIND       PRES   REMARKS
WACO           SUNNY     96  68  39 S13G18    29.97F HX 101
WACO-TSTC      MOSUNNY   95  66  38 S9G16     29.97F HX  98
WACO-MCGREGOR  MOSUNNY   97  66  36 SE12G17   29.98F HX 100
HILLSBORO      SUNNY     97  65  34 SW10      29.97F HX  99
CORSICANA      MOSUNNY   95  67  39 SW8       29.98F HX  99
MEXIA          MOSUNNY   91  72  54 SE7       29.98F HX  97
CAMERON        MOSUNNY   93  70  47 S6        29.98F HX  99
TEMPLE         MOSUNNY   93  66  40 S9        29.99F HX  96
KILLEEN        MOSUNNY   93  66  40 S12       30.00F HX  96
KILLEEN-SKYLRK MOSUNNY   93  66  40 S5        29.99F HX  96
FORT HOOD      MOSUNNY   96  68  39 S12       29.99F HX 101
GATESVILLE     MOSUNNY   95  66  38 SE6       30.01F HX  98
HAMILTON       SUNNY     94  64  37 SE8G16    30.01F HX  96
LAMPASAS       PTSUNNY   94  70  44 S5        30.00F HX 100
$$

TXZ095>097-106>112-122>126-135>138-148>153-164>167-252100-
EAST TEXAS

CITY           SKY/WX    TMP DP  RH WIND       PRES   REMARKS
PARIS          SUNNY     91  72  52 S10       29.99F HX  98
SULPHUR SPRNGS SUNNY     92  70  48 SW5       30.00F HX  98
CLARKSVILLE    MOSUNNY   91  71  51 S5        29.99F HX  96
MOUNT PLEASANT MOSUNNY   91  71  51 W3        30.00F HX  97
GILMER         MOSUNNY   91  73  55 S5        30.00F HX 100
MINEOLA        MOSUNNY   91  72  52 S6        29.99F HX  98
TYLER          MOSUNNY   91  71  51 SW7       29.99F HX  97
LONGVIEW       MOSUNNY   91  71  51 VRB5      29.98F HX  97
MARSHALL       MOSUNNY   91  76  61 S3        30.01F HX 103
ATHENS         MOSUNNY   90  70  51 S8        29.98F HX  95
JACKSONVILLE   MOSUNNY   91  70  51 SW7       30.03F HX  96
HENDERSON      MOSUNNY   91  70  50 S3        30.01F HX  96
NACOGDOCHES    MOSUNNY   91  72  52 CALM      30.00F HX  98
LUFKIN         MOSUNNY   95  71  45 S7        30.00F HX 102
$$

SUPPLEMENTAL OBSERVATIONS (CENTRAL)

CITY           SKY/WX    TMP DP  RH WIND       PRES   REMARKS
CADDO GRASSLND   N/A     93  72  49 S8          N/A  HX 100
PAT MAYSE LAKE   N/A     90  70  51 SE8         N/A  HX  95
PALESTINE        N/A     91  72  52 S5          N/A  HX  98
MCGREGOR         N/A     97  66  36 S13         N/A  HX 100
TEMPLE           N/A     93  68  43 SE12        N/A  HX  97
$$

SUPPLEMENTAL OBSERVATIONS (WEST)

CITY           SKY/WX    TMP DP  RH WIND       PRES   REMARKS
MILLERS CREEK    N/A    100  61  27 SW14        N/A  HX 101
POSSUM KINGDOM   N/A    100  57  23 S10         N/A  HX  99
GRANBURY         N/A    N/A N/A N/A S10G18      N/A
HAMBY            N/A     97  59  28 S10         N/A  HX  96
IVIE RESERVOIR   N/A     97  64  34 S7G16       N/A  HX  99
COLORADO BEND    N/A     93  64  38 SE9G17      N/A  HX  95
$$

SUPPLEMENTAL OBSERVATIONS (EAST)

CITY           SKY/WX    TMP DP  RH WIND       PRES   REMARKS
LUFKIN           N/A     93  77  59 MISG        N/A  HX 107
N SABINE NF      N/A     93  73  52 MISG        N/A  HX 102
$$

SUPPLEMENTAL OBSERVATIONS ARE A COLLECTION OF AUTOMATED INSTRUMENTS
THAT ARE MAINTAINED BY A VARIETY OF FEDERAL AND STATE AGENCIES.
CERTAIN ELEMENTS...SUCH AS HUMIDITY VALUES AND SUSTAINED WIND
SPEEDS...MAY BE APPROXIMATED.




USA.gov is the U.S. government's official web portal to all federal, state and local government web resources and services.